CAPE
0 32 186 312 485 566 599 643 565 408 223 240 375 431 536 537 416 262 215 332 466 504 248 43 2 0 0 0 0 0 0 0
0 0 49 240 395 569 613 587 494 281 185 228 321 470 525 381 261 198 260 354 369 278 135 6 0 0 0 0 0 0 0 0
47 0 0 34 207 367 406 384 250 141 198 271 373 452 390 231 145 80 148 189 198 140 35 0 0 0 0 0 0 0 0 0
379 9 0 0 40 93 140 152 167 139 196 207 239 184 72 18 0 0 5 20 24 6 0 0 0 0 0 0 0 0 0 0
693 373 6 0 0 40 19 65 62 92 119 158 146 97 2 31 3 0 0 58 0 0 0 0 0 0 0 0 0 0 0 0
1006 711 190 77 47 167 108 9 7 12 44 76 64 1 0 0 64 14 25 18 0 0 0 0 0 0 0 0 0 0 0 0
1260 991 701 362 275 368 331 192 112 13 4 11 57 13 0 2 67 109 58 35 14 4 0 0 0 0 0 0 0 0 0 0
1373 1259 988 686 573 488 721 498 406 283 169 122 101 139 51 53 197 270 152 156 116 66 1 0 0 0 0 0 2 30 50 10
1227 1355 1245 1111 820 902 1015 1014 700 534 449 338 295 223 325 254 334 445 418 392 294 136 48 31 87 77 169 200 203 233 167 46
993 1224 1396 1397 1312 1091 1158 1778 1206 1003 821 809 633 488 452 626 609 631 571 449 478 462 470 420 345 362 561 629 546 390 271 112
794 989 1366 1483 1665 1612 1331 1413 1846 1171 1234 1138 1164 921 761 696 816 956 819 694 568 688 557 551 521 581 581 564 565 498 308 167
581 819 1317 1586 1789 1975 1904 1529 1534 1759 1296 1133 1285 1380 1154 1013 909 843 936 1052 903 720 782 777 701 556 604 596 586 653 462 331
360 683 1135 1659 1712 1808 1932 1907 1800 1638 1699 1685 1279 1375 1484 1385 1193 1023 1059 977 907 1001 877 836 916 833 764 690 685 558 498 587
343 639 983 1397 1505 1662 1731 1668 1689 1676 1507 1583 1599 1428 1493 1551 1494 1395 1173 1205 1291 1048 984 1053 955 891 1015 828 900 737 653 607
641 764 956 1211 1477 1629 1578 1518 1451 1481 1444 1339 1394 1535 1474 1517 1539 1498 1444 1371 1262 1203 1252 1130 1127 1082 1039 930 699 578 466 322
301 952 1111 1179 1479 1535 1584 1524 1578 1489 1346 1370 1409 1396 1492 1486 1478 1532 1525 1515 1520 1407 1212 1144 1196 1228 1032 1047 931 409 263 192
0 88 1453 1403 1409 1470 1497 1520 1523 1441 1490 1491 1446 1458 1478 1446 1354 1406 1504 1564 1610 1568 1430 1336 1302 1216 1211 1103 965 985 725 358
105 8 112 1662 1651 1617 1715 1753 1805 1963 2151 2192 2119 2200 2387 2358 1741 1403 1312 1288 1473 1509 1473 1366 1433 1442 1422 1354 1189 995 933 442
550 534 792 1707 2202 2135 2207 2332 2465 2453 2397 2278 2168 2287 2423 2485 2352 2182 1823 1648 1624 1495 1458 1554 1631 1574 1477 1318 1168 877 423 330
500 444 716 927 1048 1183 1418 1860 2107 2128 2206 2258 2300 2313 2448 2511 2444 2089 2055 2120 2027 1734 1654 1654 1542 1580 1497 1204 1128 973 443 260
CIN
0 -652 -543 -499 -443 -425 -428 -404 -430 -498 -588 -586 -505 -480 -421 -401 -434 -491 -515 -443 -376 -361 -487 -691 -562 0 0 0 0 0 0 0
-1 0 -686 -579 -505 -428 -411 -414 -456 -565 -625 -596 -542 -461 -428 -499 -554 -576 -502 -422 -407 -450 -559 -622 0 0 0 0 0 0 0 0
-548 0 0 -743 -617 -543 -525 -545 -620 -688 -636 -584 -530 -491 -513 -611 -684 -732 -642 -585 -553 -571 -703 0 0 0 0 0 0 0 0 0
-369 -261 0 0 -701 -708 -710 -717 -716 -734 -685 -646 -608 -639 -759 -845 0 0 -730 -774 -758 -519 0 0 0 0 0 0 0 0 0 0
-331 -383 -624 0 -7 -720 -784 -718 -738 -741 -722 -699 -701 -732 -330 -808 -728 0 0 -687 0 0 0 0 0 0 0 0 0 0 0 0
-328 -332 -450 -559 -676 -579 -622 -813 -824 -712 -759 -708 -744 -366 0 0 -685 -766 -749 -762 -62 0 0 0 0 0 0 0 0 0 0 0
-273 -346 -368 -395 -399 -421 -460 -541 -616 -759 -457 -773 -669 -752 0 -294 -620 -558 -615 -660 -676 -445 0 0 0 0 0 0 0 0 0 0
-222 -300 -354 -390 -362 -336 -347 -386 -412 -470 -524 -527 -562 -511 -552 -548 -401 -373 -430 -394 -432 -473 -421 0 0 0 0 0 -339 -475 -384 -349
-211 -279 -332 -347 -360 -308 -266 -289 -326 -381 -389 -427 -389 -393 -352 -341 -301 -236 -237 -278 -313 -388 -401 -426 -406 -416 -315 -282 -275 -237 -259 -312
-191 -253 -315 -343 -331 -298 -243 -174 -231 -265 -317 -338 -369 -365 -327 -261 -244 -238 -231 -205 -179 -211 -241 -237 -226 -210 -168 -155 -181 -211 -235 -286
-173 -222 -266 -308 -338 -341 -269 -218 -166 -197 -188 -225 -276 -311 -303 -261 -212 -187 -185 -187 -213 -181 -176 -159 -158 -147 -151 -141 -155 -206 -232 -262
-152 -211 -257 -310 -318 -283 -274 -247 -201 -180 -195 -190 -158 -198 -242 -235 -229 -211 -163 -148 -182 -196 -192 -180 -173 -193 -152 -150 -162 -152 -189 -238
-148 -211 -306 -319 -313 -283 -250 -236 -243 -211 -189 -152 -154 -139 -154 -192 -219 -228 -187 -183 -200 -179 -163 -165 -156 -155 -91 -133 -128 -130 -135 -157
-147 -222 -323 -283 -301 -290 -266 -253 -256 -222 -202 -162 -128 -117 -106 -110 -140 -187 -192 -161 -155 -169 -142 -126 -141 -127 -66 -64 -59 -110 -152 -152
-164 -192 -243 -255 -310 -319 -284 -257 -236 -211 -209 -188 -166 -104 -87 -85 -91 -93 -130 -140 -155 -159 -128 -111 -99 -136 -123 -52 -45 -118 -191 -287
-267 -207 -239 -253 -293 -273 -248 -202 -179 -208 -187 -166 -153 -117 -96 -77 -80 -95 -101 -124 -144 -145 -142 -116 -71 -68 -48 -53 -32 -89 -86 -104
0 -337 -178 -237 -233 -215 -189 -164 -157 -157 -139 -104 -94 -96 -94 -91 -92 -87 -79 -99 -99 -125 -126 -93 -90 -44 -28 -35 -22 -3 -28 -43
-376 -404 -328 -179 -175 -166 -121 -113 -96 -58 -27 -24 -25 -24 -27 -40 -70 -91 -97 -87 -74 -88 -80 -57 -45 -24 -18 -13 -2 -4 -5 -37
-311 -312 -261 -162 -104 -89 -80 -45 -25 -15 -16 -23 -26 -19 -15 -14 -28 -27 -35 -48 -57 -61 -42 -46 -52 -33 -34 -13 -10 -5 -66 -73
-297 -294 -267 -221 -181 -169 -146 -102 -65 -54 -48 -39 -31 -25 -18 -11 -13 -22 -22 -22 -23 -26 -16 -14 -23 -17 -14 -16 -8 -7 -59 -92
Wind_Speed
9 6 8 4 7 13 15 15 15 16 16 16 15 15 13 12 12 11 11 11 9 9 8 8 7 7 7 7 8 7 6 6
12 10 8 6 3 6 10 13 14 13 14 14 12 12 12 10 10 10 10 9 8 6 5 5 5 5 5 6 7 7 4 4
12 10 6 8 6 5 10 12 12 10 9 9 8 7 8 7 7 7 7 7 6 5 3 3 3 4 5 5 4 3 2 2
12 10 8 8 15 10 4 4 4 4 4 5 5 6 4 5 4 5 4 4 2 2 1 2 7 9 9 7 6 3 2 1
13 12 10 8 11 11 10 9 5 4 4 4 4 2 3 2 1 2 2 2 3 3 4 5 6 8 10 11 9 7 6 2
13 12 11 6 8 9 9 8 8 7 6 5 5 4 4 4 4 4 4 5 5 7 7 6 6 7 7 9 9 8 8 7
12 12 10 7 7 9 7 7 7 7 7 7 7 7 7 8 8 7 7 7 7 8 8 8 8 8 8 7 7 8 8 10
13 13 11 8 6 6 7 5 5 5 5 6 7 8 9 8 9 8 7 7 7 7 7 7 8 8 8 8 8 8 10 12
17 14 13 12 11 7 7 7 6 5 5 4 5 5 5 5 7 7 7 7 7 7 7 7 9 8 9 8 8 9 9 9
18 16 15 13 12 11 10 6 7 7 6 5 6 7 6 6 6 8 8 8 7 8 8 8 9 9 10 12 11 10 10 10
19 18 17 15 12 10 11 10 8 9 8 8 7 8 8 7 7 7 8 9 9 9 10 10 10 11 11 12 12 12 11 12
19 19 18 14 10 8 9 11 12 10 10 11 9 9 9 10 9 9 9 9 10 11 11 11 11 12 13 13 14 14 14 14
14 16 14 13 10 9 10 11 11 13 12 10 12 11 11 11 11 11 11 12 13 12 12 13 13 14 16 18 19 19 19 19
9 14 14 14 11 9 8 8 10 10 11 13 13 12 13 13 13 13 14 14 13 14 14 15 16 16 19 24 26 26 23 25
5 10 14 13 9 8 11 11 14 15 13 11 12 13 15 15 15 15 15 16 17 17 18 19 22 22 21 23 29 30 32 28
6 8 11 11 9 8 9 10 12 10 9 10 10 12 14 15 15 15 16 17 18 21 22 22 22 26 27 26 29 33 34 38
8 6 7 9 9 6 6 7 8 10 9 9 10 10 11 15 16 18 18 18 20 21 24 25 24 28 29 31 32 32 34 38
14 8 5 6 10 5 3 5 8 11 14 16 17 18 18 16 15 16 18 21 21 23 25 26 26 29 30 30 32 34 34 33
10 8 6 4 1 3 4 6 9 17 20 21 19 20 23 25 25 22 20 21 22 25 27 28 29 31 30 31 32 34 32 34
10 9 9 7 8 9 11 14 16 19 22 23 24 26 27 28 28 29 30 28 25 27 29 30 31 31 32 33 34 34 31 30
Wind_Direction
130 234 242 210 137 135 137 136 134 136 136 138 139 138 134 130 130 127 125 124 115 108 104 93 88 76 66 54 43 53 67 81
134 142 246 240 189 144 138 140 144 141 143 144 142 141 141 138 135 139 139 134 125 108 100 92 80 74 57 34 23 25 55 108
134 148 234 250 247 171 152 153 153 148 145 147 142 135 141 141 141 143 144 146 144 136 103 48 35 23 16 20 23 40 66 123
140 153 176 247 264 266 227 173 173 166 162 158 157 158 155 156 162 169 167 165 157 149 127 358 338 336 339 342 344 2 354 170
141 147 166 234 259 265 270 274 267 251 213 195 195 207 201 203 211 209 242 253 310 315 322 323 323 325 324 325 325 329 338 300
143 145 153 205 246 261 264 261 265 268 259 244 264 254 256 262 270 279 277 299 296 303 304 302 297 302 304 311 311 312 318 324
155 151 155 169 242 265 253 254 253 254 253 246 263 273 274 287 292 285 290 294 297 305 301 302 301 302 306 304 296 300 300 306
174 170 167 173 205 230 260 238 252 259 267 262 247 273 280 279 283 282 281 283 286 292 295 299 298 300 291 293 295 288 294 301
184 184 181 183 189 211 244 260 253 251 259 248 234 247 269 263 257 252 260 269 267 280 282 288 300 295 287 284 282 281 288 286
197 189 191 189 195 202 205 238 245 243 241 246 226 222 233 247 246 241 242 238 261 267 283 281 275 283 292 300 294 279 270 276
202 197 197 203 207 211 214 225 245 247 263 257 241 233 236 248 257 262 253 250 246 257 258 261 272 279 282 287 285 282 272 270
204 204 204 209 225 236 242 238 241 260 253 251 249 244 237 241 260 269 265 267 257 249 250 257 264 269 276 279 281 278 288 285
208 205 208 207 222 233 250 244 249 250 261 263 248 253 250 247 253 261 264 251 250 264 257 258 263 287 292 288 288 287 280 277
198 203 205 202 220 235 271 267 274 264 268 267 252 249 249 247 250 258 256 255 261 258 265 268 272 281 283 301 299 300 282 287
194 189 194 204 229 260 293 300 303 301 293 272 262 249 250 250 254 260 267 265 263 268 277 274 276 286 275 281 300 291 304 303
337 199 192 199 222 248 266 285 299 286 277 285 273 252 247 252 258 264 266 270 272 284 282 278 282 280 290 278 273 295 298 301
310 327 201 201 201 221 245 277 292 306 304 291 286 290 262 257 265 274 276 276 281 280 283 284 281 283 283 286 287 284 286 293
315 306 303 183 188 201 231 276 311 320 324 322 319 318 317 312 294 286 284 280 283 287 289 290 290 290 289 283 282 291 290 292
349 0 348 16 156 205 305 326 330 322 321 323 323 322 320 318 316 312 303 296 287 285 287 292 291 290 287 285 288 291 291 293
337 355 360 346 340 344 336 330 328 328 326 325 325 324 324 325 323 321 318 314 305 300 297 294 293 295 293 293 292 294 293 295